When you browse on this site, cookies collect data to enhance your experience and personalize the content and advertising you see.
Visit our Privacy Policy to learn more. By continuing to use the site, you agree to this use of cookies and data.

Hourly Weather Sibate

Today, 15 July, Wednesday

Time Temperature Precipitation Wind Pressure Humidity
00:00 +9°C° 0 mm 2 mps 559 mmHg 81%
01:00 +9°C° 0 mm 2 mps 559 mmHg 81%
02:00 +9°C° 0 mm 2 mps 558 mmHg 82%
03:00 +10°C° 0 mm 1 mps 558 mmHg 82%
04:00 +10°C° 0 mm 1 mps 557 mmHg 82%
05:00 +10°C° 0 mm 1 mps 558 mmHg 82%
06:00 +11°C° 0 mm 1 mps 559 mmHg 81%
07:00 +12°C° 0 mm 1 mps 560 mmHg 80%
08:00 +13°C° 0 mm 1 mps 560 mmHg 77%
09:00 +14°C° 0 mm 1 mps 561 mmHg 73%
10:00 +16°C° 0 mm 1 mps 562 mmHg 69%
11:00 +16°C° 0.4 mm 1 mps 561 mmHg 69%
12:00 +18°C° 0.4 mm 1 mps 561 mmHg 69%
13:00 +18°C° 0.4 mm 1 mps 560 mmHg 68%
14:00 +18°C° 0.4 mm 1 mps 560 mmHg 69%
15:00 +18°C° 0.4 mm 1 mps 559 mmHg 69%
16:00 +18°C° 0.4 mm 1 mps 559 mmHg 70%
17:00 +15°C° 0.3 mm 1 mps 558 mmHg 75%
18:00 +14°C° 0.3 mm 1 mps 558 mmHg 80%
19:00 +12°C° 0.3 mm 2 mps 558 mmHg 85%
20:00 +12°C° 0.2 mm 2 mps 558 mmHg 85%
21:00 +10°C° 0.2 mm 2 mps 558 mmHg 85%
22:00 +10°C° 0.2 mm 2 mps 558 mmHg 84%
23:00 +9°C° 0.2 mm 2 mps 558 mmHg 85%

Tomorrow, 16 July, Thursday

Time Temperature Precipitation Wind Pressure Humidity
00:00 +9°C° 0.2 mm 2 mps 558 mmHg 85%
01:00 +9°C° 0.2 mm 2 mps 558 mmHg 86%
02:00 +10°C° 0.1 mm 1 mps 557 mmHg 86%
03:00 +10°C° 0.1 mm 1 mps 557 mmHg 86%
04:00 +10°C° 0.1 mm 1 mps 557 mmHg 86%
05:00 +10°C° 0 mm 1 mps 558 mmHg 85%
06:00 +11°C° 0 mm 1 mps 558 mmHg 85%
07:00 +12°C° 0 mm 1 mps 559 mmHg 85%
08:00 +13°C° 0 mm 1 mps 560 mmHg 80%
09:00 +15°C° 0 mm 1 mps 561 mmHg 74%
10:00 +18°C° 0 mm 1 mps 562 mmHg 69%
11:00 +18°C° 0.3 mm 1 mps 561 mmHg 69%
12:00 +17°C° 0.3 mm 2 mps 561 mmHg 70%
13:00 +17°C° 0.3 mm 2 mps 560 mmHg 71%
14:00 +18°C° 0.5 mm 1 mps 560 mmHg 73%
15:00 +18°C° 0.5 mm 1 mps 559 mmHg 76%
16:00 +16°C° 0.5 mm 1 mps 558 mmHg 79%
17:00 +15°C° 0.8 mm 1 mps 558 mmHg 81%
18:00 +14°C° 0.8 mm 1 mps 558 mmHg 84%
19:00 +12°C° 0.8 mm 2 mps 558 mmHg 87%
20:00 +12°C° 0.7 mm 2 mps 558 mmHg 87%
21:00 +12°C° 0.7 mm 2 mps 558 mmHg 87%
22:00 +10°C° 0.7 mm 2 mps 559 mmHg 88%
23:00 +10°C° 0.3 mm 2 mps 558 mmHg 88%

Day after tomorrow, 17 July, Friday

Time Temperature Precipitation Wind Pressure Humidity
00:00 +11°C° 0.3 mm 1 mps 558 mmHg 89%
01:00 +11°C° 0.3 mm 1 mps 558 mmHg 89%
02:00 +11°C° 0.1 mm 1 mps 558 mmHg 89%
03:00 +11°C° 0.1 mm 1 mps 558 mmHg 88%
04:00 +10°C° 0.1 mm 1 mps 557 mmHg 88%
05:00 +11°C° 0 mm 1 mps 558 mmHg 87%
06:00 +11°C° 0 mm 1 mps 559 mmHg 87%
07:00 +12°C° 0 mm 1 mps 559 mmHg 86%
08:00 +13°C° 0.2 mm 1 mps 560 mmHg 82%
09:00 +15°C° 0.2 mm 1 mps 561 mmHg 78%
10:00 +16°C° 0.2 mm 1 mps 562 mmHg 74%
11:00 +18°C° 0.4 mm 1 mps 561 mmHg 73%
12:00 +18°C° 0.4 mm 1 mps 561 mmHg 71%
13:00 +18°C° 0.4 mm 1 mps 560 mmHg 70%
14:00 +18°C° 0.3 mm 1 mps 560 mmHg 71%
15:00 +18°C° 0.3 mm 1 mps 559 mmHg 71%
16:00 +18°C° 0.3 mm 1 mps 559 mmHg 71%
17:00 +15°C° 0.4 mm 1 mps 558 mmHg 76%
18:00 +14°C° 0.4 mm 1 mps 558 mmHg 81%
19:00 +12°C° 0.4 mm 2 mps 558 mmHg 86%
20:00 +12°C° 0.1 mm 2 mps 558 mmHg 85%
21:00 +12°C° 0.1 mm 2 mps 559 mmHg 84%
22:00 +12°C° 0.1 mm 2 mps 559 mmHg 83%
23:00 +11°C° 0.2 mm 1 mps 559 mmHg 84%

18 July, Saturday

Time Temperature Precipitation Wind Pressure Humidity
00:00 +11°C° 0.2 mm 1 mps 558 mmHg 86%
01:00 +11°C° 0.2 mm 1 mps 558 mmHg 88%
02:00 +11°C° 0.1 mm 1 mps 558 mmHg 88%
03:00 +11°C° 0.1 mm 1 mps 558 mmHg 88%
04:00 +10°C° 0.1 mm 1 mps 557 mmHg 89%
05:00 +11°C° 0 mm 1 mps 558 mmHg 88%
06:00 +11°C° 0 mm 1 mps 558 mmHg 88%
07:00 +12°C° 0 mm 1 mps 559 mmHg 87%
08:00 +13°C° 0.3 mm 1 mps 559 mmHg 84%
09:00 +14°C° 0.3 mm 1 mps 560 mmHg 81%
10:00 +15°C° 0.3 mm 1 mps 561 mmHg 79%
11:00 +16°C° 0.6 mm 1 mps 561 mmHg 77%
12:00 +16°C° 0.6 mm 1 mps 560 mmHg 75%
13:00 +18°C° 0.6 mm 1 mps 560 mmHg 72%
14:00 +18°C° 0.4 mm 1 mps 559 mmHg 73%
15:00 +18°C° 0.4 mm 1 mps 559 mmHg 73%
16:00 +16°C° 0.4 mm 1 mps 558 mmHg 73%
17:00 +15°C° 0.3 mm 1 mps 558 mmHg 77%
18:00 +13°C° 0.3 mm 1 mps 558 mmHg 81%
19:00 +12°C° 0.3 mm 1 mps 558 mmHg 85%
20:00 +12°C° 0.1 mm 2 mps 558 mmHg 85%
21:00 +10°C° 0.1 mm 2 mps 558 mmHg 85%
22:00 +10°C° 0.1 mm 2 mps 559 mmHg 85%
23:00 +10°C° 0.1 mm 2 mps 558 mmHg 86%

19 July, Sunday

Time Temperature Precipitation Wind Pressure Humidity
00:00 +10°C° 0.1 mm 2 mps 558 mmHg 86%
01:00 +11°C° 0.1 mm 1 mps 558 mmHg 87%
02:00 +11°C° 0 mm 1 mps 557 mmHg 87%
03:00 +10°C° 0 mm 1 mps 557 mmHg 87%
04:00 +10°C° 0 mm 1 mps 557 mmHg 87%
05:00 +11°C° 0 mm 1 mps 558 mmHg 86%
06:00 +11°C° 0 mm 1 mps 558 mmHg 85%
07:00 +12°C° 0 mm 1 mps 559 mmHg 84%
08:00 +14°C° 0.1 mm 1 mps 560 mmHg 79%
09:00 +15°C° 0.1 mm 1 mps 560 mmHg 74%
10:00 +18°C° 0.1 mm 1 mps 561 mmHg 69%
11:00 +18°C° 0.4 mm 1 mps 561 mmHg 67%
12:00 +19°C° 0.4 mm 1 mps 560 mmHg 66%
13:00 +19°C° 0.4 mm 1 mps 560 mmHg 65%
14:00 +19°C° 0.4 mm 1 mps 559 mmHg 66%
15:00 +19°C° 0.4 mm 1 mps 559 mmHg 67%
16:00 +18°C° 0.4 mm 1 mps 558 mmHg 68%
17:00 +16°C° 0.3 mm 1 mps 558 mmHg 74%
18:00 +14°C° 0.3 mm 1 mps 558 mmHg 81%
19:00 +12°C° 0.3 mm 1 mps 557 mmHg 87%
20:00 +12°C° 0.1 mm 1 mps 558 mmHg 86%
21:00 +12°C° 0.1 mm 1 mps 558 mmHg 85%
22:00 +10°C° 0.1 mm 2 mps 558 mmHg 84%
23:00 +11°C° 0.3 mm 1 mps 558 mmHg 84%

20 July, Monday

Time Temperature Precipitation Wind Pressure Humidity
00:00 +11°C° 0.3 mm 1 mps 558 mmHg 84%
01:00 +11°C° 0.3 mm 1 mps 558 mmHg 84%
02:00 +11°C° 0.2 mm 1 mps 557 mmHg 85%
03:00 +11°C° 0.2 mm 1 mps 557 mmHg 85%
04:00 +11°C° 0.2 mm 1 mps 557 mmHg 86%
05:00 +11°C° 0.1 mm 1 mps 558 mmHg 86%
06:00 +12°C° 0.1 mm 1 mps 558 mmHg 86%
07:00 +11°C° 0.1 mm 0 mps 558 mmHg 86%
08:00 +11°C° 0.1 mm 0 mps 559 mmHg 85%
09:00 +12°C° 0.1 mm 0 mps 560 mmHg 84%
10:00 +12°C° 0.1 mm 0 mps 560 mmHg 83%
11:00 +13°C° 0.5 mm 0 mps 560 mmHg 82%
12:00 +15°C° 0.5 mm 1 mps 560 mmHg 80%
13:00 +15°C° 0.5 mm 1 mps 559 mmHg 79%
14:00 +16°C° 0.6 mm 1 mps 559 mmHg 77%
15:00 +16°C° 0.6 mm 1 mps 559 mmHg 75%
16:00 +16°C° 0.6 mm 1 mps 558 mmHg 73%
17:00 +15°C° 0.3 mm 1 mps 558 mmHg 77%
18:00 +14°C° 0.3 mm 1 mps 558 mmHg 80%
19:00 +13°C° 0.3 mm 1 mps 557 mmHg 84%
20:00 +12°C° 0.1 mm 1 mps 558 mmHg 84%
21:00 +12°C° 0.1 mm 1 mps 558 mmHg 84%
22:00 +10°C° 0.1 mm 2 mps 558 mmHg 83%
23:00 +11°C° 0 mm 1 mps 558 mmHg 84%
Show more